NKS4 KDTW-KLAS

Flight info

Callsign NKS4
Flight time 4h 10m
Altitude 34000
Route KAYLN3 SMUUV OBK IOW J60 HVE GGAPP CHOWW4
Aircraft A320/M-SDE3FGHIRWY/LB1

Departure

Time 2026-05-07 13:12
Airport Detroit Metropolitan Wayne County Airport (KDTW)

Arrival

Time 2026-05-07 17:22
Airport Harry Reid International Airport (KLAS)
Time Latitude Longitude Altitude Speed Heading
2026-05-07 12:52 42.22449 -83.35011 646 ft 0 kts 118°
2026-05-07 13:02 42.22451 -83.35017 646 ft 2 kts 121°
2026-05-07 13:02 42.22463 -83.35038 646 ft 3 kts 142°
2026-05-07 13:02 42.22480 -83.35051 646 ft 3 kts 163°
2026-05-07 13:03 42.22499 -83.35056 648 ft 3 kts 180°
2026-05-07 13:03 42.22519 -83.35054 646 ft 3 kts 197°
2026-05-07 13:03 42.22533 -83.35047 646 ft 1 kts 209°
2026-05-07 13:03 42.22534 -83.35046 646 ft 0 kts 209°
2026-05-07 13:05 42.22533 -83.35047 646 ft 2 kts 209°
2026-05-07 13:05 42.22472 -83.35095 646 ft 15 kts 210°
2026-05-07 13:05 42.22421 -83.35162 647 ft 16 kts 231°
2026-05-07 13:05 42.22319 -83.35314 648 ft 17 kts 217°
2026-05-07 13:06 42.22254 -83.35376 646 ft 18 kts 205°
2026-05-07 13:06 42.22142 -83.35457 647 ft 19 kts 208°
2026-05-07 13:06 42.22023 -83.35545 645 ft 20 kts 209°
2026-05-07 13:06 42.21896 -83.35639 646 ft 21 kts 207°
2026-05-07 13:07 42.21821 -83.35582 647 ft 14 kts 94°
2026-05-07 13:07 42.21822 -83.35433 645 ft 21 kts 88°
2026-05-07 13:07 42.21825 -83.35219 645 ft 23 kts 88°
2026-05-07 13:07 42.21829 -83.35012 646 ft 21 kts 88°
2026-05-07 13:08 42.21834 -83.34809 646 ft 22 kts 88°
2026-05-07 13:08 42.21836 -83.34596 647 ft 23 kts 90°
2026-05-07 13:08 42.21915 -83.34462 646 ft 19 kts 29°
2026-05-07 13:08 42.21945 -83.34436 646 ft 19 kts 31°
2026-05-07 13:09 42.22022 -83.34377 646 ft 20 kts 29°
2026-05-07 13:09 42.22146 -83.34287 647 ft 21 kts 28°
2026-05-07 13:09 42.22276 -83.34192 647 ft 22 kts 28°
2026-05-07 13:09 42.22410 -83.34093 646 ft 22 kts 28°
2026-05-07 13:10 42.22548 -83.33991 646 ft 23 kts 28°
2026-05-07 13:10 42.22692 -83.33886 646 ft 24 kts 28°
2026-05-07 13:10 42.22831 -83.33783 646 ft 19 kts 28°
2026-05-07 13:10 42.22824 -83.33656 645 ft 16 kts 153°
2026-05-07 13:11 42.22725 -83.33692 646 ft 15 kts 208°
2026-05-07 13:11 42.22496 -83.33862 647 ft 72 kts 208°
2026-05-07 13:11 42.21871 -83.34322 647 ft 129 kts 208°
2026-05-07 13:11 42.20960 -83.34984 740 ft 162 kts 208°
2026-05-07 13:12 42.20008 -83.35709 1430 ft 156 kts 219°
2026-05-07 13:12 42.19282 -83.36749 2026 ft 155 kts 236°
2026-05-07 13:12 42.18592 -83.37989 2187 ft 175 kts 236°
2026-05-07 13:12 42.17820 -83.39374 2340 ft 195 kts 236°
2026-05-07 13:13 42.16953 -83.40929 2505 ft 220 kts 236°
2026-05-07 13:13 42.15985 -83.42659 2773 ft 242 kts 235°
2026-05-07 13:13 42.14942 -83.44516 3333 ft 252 kts 235°
2026-05-07 13:13 42.13877 -83.46405 4129 ft 254 kts 235°
2026-05-07 13:14 42.12803 -83.48304 4970 ft 255 kts 234°
2026-05-07 13:14 42.11724 -83.50208 5741 ft 256 kts 234°
2026-05-07 13:14 42.10636 -83.52127 6498 ft 259 kts 234°
2026-05-07 13:14 42.09542 -83.54058 7205 ft 260 kts 235°
2026-05-07 13:15 42.08443 -83.56006 7904 ft 263 kts 236°
2026-05-07 13:15 42.07337 -83.57973 8608 ft 264 kts 238°
2026-05-07 13:15 42.06536 -83.60173 9271 ft 262 kts 257°
2026-05-07 13:15 42.06367 -83.62597 9953 ft 261 kts 277°
2026-05-07 13:16 42.06837 -83.64954 10584 ft 263 kts 295°
2026-05-07 13:16 42.07843 -83.67055 10966 ft 277 kts 303°
2026-05-07 13:16 42.09010 -83.69235 11105 ft 296 kts 303°
2026-05-07 13:16 42.10255 -83.71541 11330 ft 311 kts 304°
2026-05-07 13:17 42.11545 -83.73916 11837 ft 315 kts 303°
2026-05-07 13:17 42.12841 -83.76312 12426 ft 317 kts 303°
2026-05-07 13:17 42.14144 -83.78719 13029 ft 319 kts 303°
2026-05-07 13:17 42.15455 -83.81144 13607 ft 321 kts 303°
2026-05-07 13:18 42.16769 -83.83583 14159 ft 322 kts 302°
2026-05-07 13:18 42.18087 -83.86037 14665 ft 324 kts 302°
2026-05-07 13:18 42.19408 -83.88504 15174 ft 326 kts 302°
2026-05-07 13:18 42.20740 -83.90988 15644 ft 327 kts 302°
2026-05-07 13:19 42.22080 -83.93484 16103 ft 330 kts 302°
2026-05-07 13:19 42.23431 -83.96005 16574 ft 332 kts 301°
2026-05-07 13:19 42.24787 -83.98541 17048 ft 334 kts 301°
2026-05-07 13:19 42.26153 -84.01096 17570 ft 336 kts 301°
2026-05-07 13:20 42.27526 -84.03662 18056 ft 338 kts 301°
2026-05-07 13:20 42.28906 -84.06243 18520 ft 340 kts 301°
2026-05-07 13:20 42.30294 -84.08847 18959 ft 343 kts 301°
2026-05-07 13:20 42.31689 -84.11467 19407 ft 344 kts 301°
2026-05-07 13:21 42.33074 -84.14073 19833 ft 346 kts 301°
2026-05-07 13:21 42.34501 -84.16760 20265 ft 348 kts 301°
2026-05-07 13:21 42.35918 -84.19428 20680 ft 350 kts 301°
2026-05-07 13:21 42.37321 -84.22072 21085 ft 352 kts 300°
2026-05-07 13:22 42.38755 -84.24772 21474 ft 354 kts 300°
2026-05-07 13:22 42.40196 -84.27488 21856 ft 356 kts 300°
2026-05-07 13:22 42.41595 -84.30257 22231 ft 355 kts 295°
2026-05-07 13:22 42.42609 -84.33287 22603 ft 352 kts 284°
2026-05-07 13:23 42.43156 -84.36499 22973 ft 351 kts 275°
2026-05-07 13:23 42.43299 -84.39802 23344 ft 351 kts 270°
2026-05-07 13:23 42.43385 -84.43111 23691 ft 353 kts 270°
2026-05-07 13:23 42.43472 -84.46440 24014 ft 354 kts 270°
2026-05-07 13:24 42.43557 -84.49779 24357 ft 355 kts 270°
2026-05-07 13:24 42.43640 -84.53114 24689 ft 355 kts 270°
2026-05-07 13:24 42.43725 -84.56461 25013 ft 356 kts 270°
2026-05-07 13:24 42.43810 -84.59812 25330 ft 356 kts 270°
2026-05-07 13:25 42.43893 -84.63163 25654 ft 357 kts 270°
2026-05-07 13:25 42.43980 -84.66528 25972 ft 357 kts 270°
2026-05-07 13:25 42.44063 -84.69896 26281 ft 359 kts 270°
2026-05-07 13:25 42.44146 -84.73277 26582 ft 360 kts 270°
2026-05-07 13:26 42.44226 -84.76659 26892 ft 360 kts 269°
2026-05-07 13:26 42.44307 -84.80061 27208 ft 361 kts 269°
2026-05-07 13:26 42.44386 -84.83464 27538 ft 362 kts 269°
2026-05-07 13:26 42.44460 -84.86830 27841 ft 363 kts 269°
2026-05-07 13:27 42.44534 -84.90295 28193 ft 363 kts 269°
2026-05-07 13:27 42.44608 -84.93651 28657 ft 360 kts 269°
2026-05-07 13:27 42.44687 -84.97074 29129 ft 357 kts 269°
2026-05-07 13:27 42.44761 -85.00378 29605 ft 354 kts 269°
2026-05-07 13:28 42.44835 -85.03706 30071 ft 352 kts 269°
2026-05-07 13:28 42.44910 -85.07010 30426 ft 351 kts 269°
2026-05-07 13:28 42.44981 -85.10311 30715 ft 351 kts 269°
2026-05-07 13:28 42.45049 -85.13613 31018 ft 351 kts 269°
2026-05-07 13:29 42.45112 -85.16919 31321 ft 350 kts 269°
2026-05-07 13:29 42.45172 -85.20214 31622 ft 350 kts 269°
2026-05-07 13:29 42.45233 -85.23502 31925 ft 350 kts 269°
2026-05-07 13:29 42.45297 -85.26799 32234 ft 349 kts 269°
2026-05-07 13:30 42.45362 -85.30091 32541 ft 349 kts 269°
2026-05-07 13:30 42.45424 -85.33375 32854 ft 349 kts 269°
2026-05-07 13:30 42.45485 -85.36653 33162 ft 348 kts 270°
2026-05-07 13:30 42.45544 -85.39931 33470 ft 348 kts 270°
2026-05-07 13:31 42.45603 -85.43201 33765 ft 348 kts 270°
2026-05-07 13:31 42.45662 -85.46481 33987 ft 348 kts 270°
2026-05-07 13:31 42.45779 -85.53096 34034 ft 355 kts 270°
2026-05-07 13:32 42.45896 -85.59798 34034 ft 356 kts 270°
2026-05-07 13:32 42.46001 -85.66458 34040 ft 356 kts 270°
2026-05-07 13:33 42.46102 -85.73161 34045 ft 356 kts 270°
2026-05-07 13:33 42.46201 -85.79878 34042 ft 356 kts 270°
2026-05-07 13:34 42.46348 -85.89935 34043 ft 356 kts 270°
2026-05-07 13:35 42.46435 -85.96654 34048 ft 357 kts 269°
2026-05-07 13:35 42.46516 -86.03373 34040 ft 357 kts 269°
2026-05-07 13:36 42.46597 -86.10055 34051 ft 357 kts 269°
2026-05-07 13:36 42.46140 -86.16713 34049 ft 356 kts 261°
2026-05-07 13:37 42.45298 -86.23331 34061 ft 357 kts 261°
2026-05-07 13:37 42.44454 -86.29946 34055 ft 357 kts 261°
2026-05-07 13:38 42.43608 -86.36565 34055 ft 357 kts 261°
2026-05-07 13:38 42.42756 -86.43191 34053 ft 357 kts 261°
2026-05-07 13:39 42.41904 -86.49825 34061 ft 357 kts 261°
2026-05-07 13:39 42.41046 -86.56448 34064 ft 357 kts 261°
2026-05-07 13:40 42.40180 -86.63076 34074 ft 358 kts 261°
2026-05-07 13:40 42.39308 -86.69716 34066 ft 359 kts 261°
2026-05-07 13:41 42.38444 -86.76358 34055 ft 358 kts 261°
2026-05-07 13:41 42.37567 -86.83006 34057 ft 359 kts 261°
2026-05-07 13:42 42.36683 -86.89647 34059 ft 359 kts 260°
2026-05-07 13:42 42.35804 -86.96231 34043 ft 357 kts 261°
2026-05-07 13:43 42.34921 -87.02837 34045 ft 357 kts 261°
2026-05-07 13:43 42.34033 -87.09453 34046 ft 357 kts 261°
2026-05-07 13:44 42.33136 -87.16062 34054 ft 357 kts 261°
2026-05-07 13:44 42.32241 -87.22669 34061 ft 357 kts 261°
2026-05-07 13:45 42.31341 -87.29269 34059 ft 357 kts 261°
2026-05-07 13:45 42.30438 -87.35873 34067 ft 358 kts 261°
2026-05-07 13:46 42.29527 -87.42499 34057 ft 359 kts 260°
2026-05-07 13:46 42.28612 -87.49133 34052 ft 360 kts 261°
2026-05-07 13:47 42.27693 -87.55778 34048 ft 360 kts 260°
2026-05-07 13:47 42.26761 -87.62433 34047 ft 361 kts 260°
2026-05-07 13:48 42.25823 -87.69081 34052 ft 361 kts 260°
2026-05-07 13:48 42.24885 -87.75736 34058 ft 361 kts 260°
2026-05-07 13:49 42.23951 -87.82400 34058 ft 362 kts 260°
2026-05-07 13:49 42.23007 -87.89036 34060 ft 363 kts 260°
2026-05-07 13:50 42.22045 -87.95719 34055 ft 363 kts 259°
2026-05-07 13:50 42.20938 -88.02368 34061 ft 363 kts 258°
2026-05-07 13:51 42.19745 -88.08985 34062 ft 363 kts 258°
2026-05-07 13:51 42.18749 -88.14539 34059 ft 364 kts 258°
2026-05-07 13:52 42.17583 -88.21143 34036 ft 364 kts 258°
2026-05-07 13:52 42.16406 -88.27793 34065 ft 364 kts 258°
2026-05-07 13:53 42.15234 -88.34416 34081 ft 363 kts 258°
2026-05-07 13:53 42.14056 -88.41031 34083 ft 363 kts 258°
2026-05-07 13:54 42.12875 -88.47646 34075 ft 363 kts 258°
2026-05-07 13:54 42.11687 -88.54259 34075 ft 364 kts 258°
2026-05-07 13:55 42.10490 -88.60887 34079 ft 364 kts 258°
2026-05-07 13:55 42.09291 -88.67513 34076 ft 365 kts 258°
2026-05-07 13:56 42.08091 -88.74150 34080 ft 365 kts 258°
2026-05-07 13:56 42.06886 -88.80774 34087 ft 364 kts 258°
2026-05-07 13:57 42.05674 -88.87408 34088 ft 365 kts 258°
2026-05-07 13:57 42.04459 -88.94051 34078 ft 366 kts 258°
2026-05-07 13:58 42.03244 -89.00656 34080 ft 366 kts 258°
2026-05-07 13:58 42.02016 -89.07312 34075 ft 367 kts 258°
2026-05-07 13:59 42.00784 -89.13977 34080 ft 368 kts 258°
2026-05-07 13:59 41.99548 -89.20658 34083 ft 368 kts 258°
2026-05-07 14:00 41.98302 -89.27330 34034 ft 367 kts 258°
2026-05-07 14:00 41.97057 -89.33959 34064 ft 365 kts 258°
2026-05-07 14:01 41.95818 -89.40561 34067 ft 364 kts 258°
2026-05-07 14:01 41.94570 -89.47153 34075 ft 364 kts 258°
2026-05-07 14:02 41.93328 -89.53742 34077 ft 364 kts 258°
2026-05-07 14:02 41.92082 -89.60329 34077 ft 364 kts 258°
2026-05-07 14:03 41.90842 -89.66859 34075 ft 363 kts 258°
2026-05-07 14:03 41.89589 -89.73431 34070 ft 362 kts 258°
2026-05-07 14:04 41.88335 -89.79983 34075 ft 362 kts 258°
2026-05-07 14:04 41.87077 -89.86526 34071 ft 362 kts 258°
2026-05-07 14:05 41.85814 -89.93071 34073 ft 362 kts 258°
2026-05-07 14:05 41.84547 -89.99614 34078 ft 362 kts 258°
2026-05-07 14:05 41.83919 -90.02846 33880 ft 351 kts 257°
2026-05-07 14:06 41.83310 -90.05972 34029 ft 343 kts 257°
2026-05-07 14:06 41.82115 -90.12073 34063 ft 339 kts 257°
2026-05-07 14:07 41.80917 -90.18211 34060 ft 338 kts 257°
2026-05-07 14:07 41.79731 -90.24273 34035 ft 338 kts 257°
2026-05-07 14:08 41.78531 -90.30359 34039 ft 338 kts 257°
2026-05-07 14:08 41.77331 -90.36455 33986 ft 338 kts 257°
2026-05-07 14:09 41.76140 -90.42475 34047 ft 332 kts 257°
2026-05-07 14:09 41.74961 -90.48436 34042 ft 331 kts 257°
2026-05-07 14:10 41.73785 -90.54380 34034 ft 330 kts 257°
2026-05-07 14:10 41.72597 -90.60316 34036 ft 330 kts 257°
2026-05-07 14:11 41.71405 -90.66244 34032 ft 330 kts 257°
2026-05-07 14:11 41.70210 -90.72171 34033 ft 329 kts 257°
2026-05-07 14:12 41.69018 -90.78096 34046 ft 330 kts 256°
2026-05-07 14:12 41.67819 -90.84039 34043 ft 331 kts 256°
2026-05-07 14:13 41.66613 -90.89996 34020 ft 332 kts 256°
2026-05-07 14:13 41.65413 -90.95919 34022 ft 332 kts 256°
2026-05-07 14:14 41.64195 -91.01890 34021 ft 333 kts 256°
2026-05-07 14:14 41.62975 -91.07873 34024 ft 334 kts 256°
2026-05-07 14:15 41.61746 -91.13861 34033 ft 334 kts 256°
2026-05-07 14:15 41.60517 -91.19846 34034 ft 334 kts 256°
2026-05-07 14:16 41.59291 -91.25781 34039 ft 334 kts 256°
2026-05-07 14:16 41.58051 -91.31773 34041 ft 334 kts 256°
2026-05-07 14:17 41.56810 -91.37762 34042 ft 334 kts 256°
2026-05-07 14:17 41.55570 -91.43754 34039 ft 334 kts 256°
2026-05-07 14:18 41.54332 -91.49718 34032 ft 332 kts 256°
2026-05-07 14:18 41.53103 -91.55587 34056 ft 330 kts 256°
2026-05-07 14:19 41.51904 -91.61472 34058 ft 328 kts 260°
2026-05-07 14:19 41.51320 -91.67493 34054 ft 327 kts 262°
2026-05-07 14:20 41.50755 -91.73516 34050 ft 327 kts 262°
2026-05-07 14:20 41.50187 -91.79530 34051 ft 327 kts 262°
2026-05-07 14:21 41.49614 -91.85549 34046 ft 327 kts 262°
2026-05-07 14:21 41.49043 -91.91565 34067 ft 327 kts 262°
2026-05-07 14:22 41.48466 -91.97601 34055 ft 328 kts 262°
2026-05-07 14:22 41.47884 -92.03646 34038 ft 329 kts 262°
2026-05-07 14:23 41.47300 -92.09709 34049 ft 330 kts 262°
2026-05-07 14:23 41.46708 -92.15772 34043 ft 330 kts 262°
2026-05-07 14:24 41.46107 -92.21841 34049 ft 330 kts 262°
2026-05-07 14:24 41.45508 -92.27907 34029 ft 330 kts 262°
2026-05-07 14:25 41.44905 -92.33975 34036 ft 331 kts 262°
2026-05-07 14:25 41.44301 -92.40066 34031 ft 332 kts 261°
2026-05-07 14:26 41.43689 -92.46178 34044 ft 333 kts 261°
2026-05-07 14:26 41.43074 -92.52300 34046 ft 333 kts 261°
2026-05-07 14:27 41.42463 -92.58391 34048 ft 334 kts 261°
2026-05-07 14:27 41.41840 -92.64519 34051 ft 334 kts 261°
2026-05-07 14:28 41.41204 -92.70658 34050 ft 334 kts 261°
2026-05-07 14:28 41.40567 -92.76803 34050 ft 335 kts 261°
2026-05-07 14:29 41.39934 -92.82942 34025 ft 335 kts 261°
2026-05-07 14:29 41.39297 -92.89091 34041 ft 335 kts 261°
2026-05-07 14:30 41.38652 -92.95243 34026 ft 335 kts 261°
2026-05-07 14:30 41.38006 -93.01390 34033 ft 335 kts 261°
2026-05-07 14:31 41.37352 -93.07538 34029 ft 336 kts 261°
2026-05-07 14:31 41.36697 -93.13715 34013 ft 337 kts 261°
2026-05-07 14:32 41.36036 -93.19911 34011 ft 339 kts 261°
2026-05-07 14:32 41.35374 -93.26084 34018 ft 339 kts 261°
2026-05-07 14:33 41.34703 -93.32300 34025 ft 339 kts 261°
2026-05-07 14:33 41.34028 -93.38514 34030 ft 339 kts 261°
2026-05-07 14:34 41.33351 -93.44729 34039 ft 339 kts 261°
2026-05-07 14:34 41.32673 -93.50944 34049 ft 340 kts 261°
2026-05-07 14:35 41.31989 -93.57174 34056 ft 340 kts 261°
2026-05-07 14:35 41.31298 -93.63400 34069 ft 340 kts 261°
2026-05-07 14:36 41.30601 -93.69628 34070 ft 340 kts 261°
2026-05-07 14:36 41.29902 -93.75847 34074 ft 340 kts 261°
2026-05-07 14:37 41.29321 -93.81016 34078 ft 340 kts 261°
2026-05-07 14:37 41.28616 -93.87314 34129 ft 351 kts 267°
2026-05-07 14:37 41.28253 -93.90554 34131 ft 357 kts 267°
2026-05-07 14:38 41.27502 -93.97120 34129 ft 360 kts 266°
2026-05-07 14:38 41.26742 -94.03705 34120 ft 361 kts 266°
2026-05-07 14:39 41.25979 -94.10292 34111 ft 360 kts 266°
2026-05-07 14:39 41.25219 -94.16878 34086 ft 361 kts 266°
2026-05-07 14:40 41.24458 -94.23471 34037 ft 361 kts 266°
2026-05-07 14:40 41.23687 -94.30060 34035 ft 361 kts 266°
2026-05-07 14:41 41.22914 -94.36664 34032 ft 362 kts 266°
2026-05-07 14:41 41.22141 -94.43222 34038 ft 362 kts 266°
2026-05-07 14:42 41.21354 -94.49839 34050 ft 362 kts 265°
2026-05-07 14:42 41.20562 -94.56448 34063 ft 362 kts 266°
2026-05-07 14:43 41.19773 -94.63060 34056 ft 363 kts 265°
2026-05-07 14:43 41.18979 -94.69691 34097 ft 364 kts 265°
2026-05-07 14:44 41.18174 -94.76327 34084 ft 365 kts 265°
2026-05-07 14:44 41.17361 -94.82973 34084 ft 365 kts 265°
2026-05-07 14:45 41.16544 -94.89619 34080 ft 365 kts 265°
2026-05-07 14:45 41.15730 -94.96269 34038 ft 365 kts 265°
2026-05-07 14:46 41.14915 -95.02939 34035 ft 366 kts 265°
2026-05-07 14:46 41.14087 -95.09623 34020 ft 368 kts 264°
2026-05-07 14:47 41.13257 -95.16279 34004 ft 368 kts 264°
2026-05-07 14:47 41.12415 -95.23000 33995 ft 369 kts 264°
2026-05-07 14:48 41.11567 -95.29715 33996 ft 369 kts 264°
2026-05-07 14:48 41.10713 -95.36424 33978 ft 370 kts 264°
2026-05-07 14:49 41.09860 -95.43165 34006 ft 371 kts 264°
2026-05-07 14:49 41.09011 -95.49884 34034 ft 372 kts 264°
2026-05-07 14:50 41.08141 -95.56662 34070 ft 373 kts 264°
2026-05-07 14:50 41.07258 -95.63441 34039 ft 373 kts 264°
2026-05-07 14:51 41.06378 -95.70220 34021 ft 374 kts 264°
2026-05-07 14:51 41.05497 -95.77019 33970 ft 375 kts 263°
2026-05-07 14:52 41.04600 -95.83842 33955 ft 376 kts 263°
2026-05-07 14:52 41.03703 -95.90675 33962 ft 377 kts 263°
2026-05-07 14:53 41.02802 -95.97531 33977 ft 377 kts 263°
2026-05-07 14:53 41.01902 -96.04335 34005 ft 378 kts 263°
2026-05-07 14:54 41.00987 -96.11187 34009 ft 378 kts 263°
2026-05-07 14:54 41.00065 -96.18046 34035 ft 379 kts 263°
2026-05-07 14:55 40.99139 -96.24928 34057 ft 380 kts 263°
2026-05-07 14:55 40.98209 -96.31820 34083 ft 381 kts 263°
2026-05-07 14:56 40.97266 -96.38733 34119 ft 382 kts 263°
2026-05-07 14:56 40.96322 -96.45638 34161 ft 382 kts 263°
2026-05-07 14:57 40.95367 -96.52561 34148 ft 383 kts 262°
2026-05-07 14:57 40.94412 -96.59447 34005 ft 383 kts 263°
2026-05-07 14:58 40.93457 -96.66385 33962 ft 383 kts 262°
2026-05-07 14:58 40.92494 -96.73320 33957 ft 383 kts 262°
2026-05-07 14:59 40.91694 -96.80276 33967 ft 382 kts 265°
2026-05-07 14:59 40.91091 -96.87257 33971 ft 382 kts 266°
2026-05-07 15:00 40.90480 -96.94238 34008 ft 382 kts 265°
2026-05-07 15:00 40.89822 -97.01204 34043 ft 382 kts 265°
2026-05-07 15:01 40.89145 -97.08178 34086 ft 382 kts 265°
2026-05-07 15:01 40.88468 -97.15155 34127 ft 383 kts 265°
2026-05-07 15:02 40.87792 -97.22136 34168 ft 383 kts 265°
2026-05-07 15:02 40.87105 -97.29113 34173 ft 383 kts 265°
2026-05-07 15:03 40.86414 -97.36096 34175 ft 383 kts 265°
2026-05-07 15:03 40.85722 -97.43072 34175 ft 383 kts 265°
2026-05-07 15:04 40.85034 -97.50005 34175 ft 383 kts 265°
2026-05-07 15:04 40.84684 -97.53495 33956 ft 383 kts 265°
2026-05-07 15:04 40.84331 -97.56986 33958 ft 383 kts 265°
2026-05-07 15:05 40.83624 -97.63954 33947 ft 383 kts 265°
2026-05-07 15:05 40.82916 -97.70915 33957 ft 382 kts 265°
2026-05-07 15:06 40.82198 -97.77868 33965 ft 383 kts 265°
2026-05-07 15:06 40.81477 -97.84824 33969 ft 382 kts 265°
2026-05-07 15:07 40.80754 -97.91774 33968 ft 382 kts 265°
2026-05-07 15:07 40.80032 -97.98732 33956 ft 382 kts 266°
2026-05-07 15:08 40.79310 -98.05632 33965 ft 382 kts 265°
2026-05-07 15:08 40.78580 -98.12572 33973 ft 381 kts 265°
2026-05-07 15:09 40.77845 -98.19496 33980 ft 381 kts 265°
2026-05-07 15:09 40.77102 -98.26407 33978 ft 380 kts 265°
2026-05-07 15:10 40.76356 -98.33310 33977 ft 380 kts 265°
2026-05-07 15:10 40.75615 -98.40200 33971 ft 379 kts 266°
2026-05-07 15:11 40.74875 -98.47078 33968 ft 378 kts 266°
2026-05-07 15:11 40.74123 -98.53937 33972 ft 378 kts 265°
2026-05-07 15:12 40.73361 -98.60784 33970 ft 377 kts 265°
2026-05-07 15:12 40.72606 -98.67641 33970 ft 377 kts 265°
2026-05-07 15:13 40.71850 -98.74448 33941 ft 377 kts 265°
2026-05-07 15:13 40.71084 -98.81292 33953 ft 377 kts 266°
2026-05-07 15:14 40.70318 -98.88123 33961 ft 377 kts 265°
2026-05-07 15:14 40.69545 -98.94960 33966 ft 377 kts 265°
2026-05-07 15:15 40.68765 -99.01785 33969 ft 377 kts 265°
2026-05-07 15:15 40.67989 -99.08612 33969 ft 377 kts 265°
2026-05-07 15:16 40.67206 -99.15446 33953 ft 378 kts 265°
2026-05-07 15:16 40.66420 -99.22281 33965 ft 377 kts 265°
2026-05-07 15:17 40.65620 -99.29127 33968 ft 378 kts 265°
2026-05-07 15:17 40.64818 -99.35977 33972 ft 379 kts 265°
2026-05-07 15:18 40.64018 -99.42831 33976 ft 378 kts 265°
2026-05-07 15:18 40.63207 -99.49676 33950 ft 378 kts 265°
2026-05-07 15:19 40.62397 -99.56514 33960 ft 378 kts 265°
2026-05-07 15:19 40.61591 -99.63313 33961 ft 379 kts 265°
2026-05-07 15:20 40.60772 -99.70152 33962 ft 378 kts 265°
2026-05-07 15:20 40.59944 -99.76985 33965 ft 378 kts 265°
2026-05-07 15:21 40.59115 -99.83808 33947 ft 378 kts 264°
2026-05-07 15:21 40.58282 -99.90652 33947 ft 378 kts 264°
2026-05-07 15:22 40.57447 -99.97494 33957 ft 379 kts 264°
2026-05-07 15:22 40.56605 -100.04348 33955 ft 379 kts 264°
2026-05-07 15:23 40.55771 -100.11140 33961 ft 379 kts 264°
2026-05-07 15:23 40.54919 -100.17979 33965 ft 379 kts 264°
2026-05-07 15:24 40.54061 -100.24832 33946 ft 379 kts 264°
2026-05-07 15:24 40.53195 -100.31681 33954 ft 380 kts 264°
2026-05-07 15:25 40.52477 -100.37378 33958 ft 380 kts 264°
2026-05-07 15:25 40.51615 -100.44239 33961 ft 380 kts 264°
2026-05-07 15:26 40.50745 -100.51093 33963 ft 380 kts 264°
2026-05-07 15:26 40.49860 -100.57949 33938 ft 381 kts 264°
2026-05-07 15:27 40.48976 -100.64815 33942 ft 381 kts 264°
2026-05-07 15:27 40.48095 -100.71675 33947 ft 381 kts 264°
2026-05-07 15:28 40.47208 -100.78546 33952 ft 382 kts 264°
2026-05-07 15:28 40.46308 -100.85425 33957 ft 382 kts 264°
2026-05-07 15:29 40.45409 -100.92261 33960 ft 383 kts 264°
2026-05-07 15:29 40.44492 -100.99148 33968 ft 383 kts 264°
2026-05-07 15:30 40.43567 -101.06029 33971 ft 383 kts 264°
2026-05-07 15:30 40.42633 -101.12893 33976 ft 382 kts 263°
2026-05-07 15:31 40.41691 -101.19767 33976 ft 382 kts 263°
2026-05-07 15:31 40.40752 -101.26631 33976 ft 383 kts 263°
2026-05-07 15:32 40.39818 -101.33414 34405 ft 382 kts 258°
2026-05-07 15:32 40.38878 -101.40218 34171 ft 376 kts 258°
2026-05-07 15:33 40.38412 -101.43578 34034 ft 373 kts 258°
2026-05-07 15:33 40.37950 -101.46912 33983 ft 372 kts 258°
2026-05-07 15:33 40.37026 -101.53575 33984 ft 371 kts 258°
2026-05-07 15:34 40.36093 -101.60232 33984 ft 371 kts 258°
2026-05-07 15:34 40.35156 -101.66877 33984 ft 371 kts 258°
2026-05-07 15:35 40.34216 -101.73546 33971 ft 372 kts 258°
2026-05-07 15:35 40.33274 -101.80221 33965 ft 373 kts 258°
2026-05-07 15:36 40.32327 -101.86907 33960 ft 373 kts 258°
2026-05-07 15:36 40.31367 -101.93601 33963 ft 374 kts 258°
2026-05-07 15:37 40.30400 -102.00302 33967 ft 374 kts 258°
2026-05-07 15:37 40.29432 -102.07014 33955 ft 375 kts 258°
2026-05-07 15:38 40.28460 -102.13741 33950 ft 376 kts 258°
2026-05-07 15:38 40.27477 -102.20485 33949 ft 377 kts 258°
2026-05-07 15:39 40.26488 -102.27193 33951 ft 378 kts 258°
2026-05-07 15:39 40.25488 -102.33952 33959 ft 378 kts 258°
2026-05-07 15:40 40.24570 -102.40217 33985 ft 379 kts 258°
2026-05-07 15:40 40.23565 -102.47051 33966 ft 383 kts 258°
2026-05-07 15:41 40.22545 -102.53900 33979 ft 383 kts 258°
2026-05-07 15:41 40.21520 -102.60755 33970 ft 384 kts 258°
2026-05-07 15:42 40.20495 -102.67599 33975 ft 383 kts 258°
2026-05-07 15:42 40.19468 -102.74450 33985 ft 384 kts 258°
2026-05-07 15:43 40.18433 -102.81306 33983 ft 385 kts 258°
2026-05-07 15:43 40.17391 -102.88170 33992 ft 385 kts 258°
2026-05-07 15:44 40.16339 -102.95040 33991 ft 386 kts 258°
2026-05-07 15:44 40.15284 -103.01921 33984 ft 387 kts 258°
2026-05-07 15:45 40.14231 -103.08818 33991 ft 387 kts 258°
2026-05-07 15:45 40.13165 -103.15718 34066 ft 387 kts 258°
2026-05-07 15:46 40.11553 -103.26105 34059 ft 389 kts 258°
2026-05-07 15:47 40.10468 -103.33029 34068 ft 390 kts 258°
2026-05-07 15:47 40.09385 -103.39913 34060 ft 389 kts 258°
2026-05-07 15:48 40.08299 -103.46840 34041 ft 389 kts 258°
2026-05-07 15:48 40.07211 -103.53758 34002 ft 389 kts 258°
2026-05-07 15:49 40.06112 -103.60692 33990 ft 390 kts 258°
2026-05-07 15:49 40.05009 -103.67627 34007 ft 390 kts 258°
2026-05-07 15:50 40.03900 -103.74572 33993 ft 390 kts 258°
2026-05-07 15:50 40.02785 -103.81490 33993 ft 390 kts 258°
2026-05-07 15:51 40.01669 -103.88432 33985 ft 391 kts 258°
2026-05-07 15:51 40.00547 -103.95389 33987 ft 393 kts 258°
2026-05-07 15:52 39.99423 -104.02328 34000 ft 393 kts 258°
2026-05-07 15:52 39.98282 -104.09310 33995 ft 394 kts 258°
2026-05-07 15:53 39.97131 -104.16304 34012 ft 395 kts 258°
2026-05-07 15:53 39.96023 -104.23032 34037 ft 395 kts 258°
2026-05-07 15:54 39.94866 -104.30046 34045 ft 397 kts 258°
2026-05-07 15:54 39.93703 -104.37075 34061 ft 397 kts 258°
2026-05-07 15:55 39.92536 -104.44126 34079 ft 399 kts 258°
2026-05-07 15:55 39.91357 -104.51195 34100 ft 400 kts 258°
2026-05-07 15:56 39.90167 -104.58264 34106 ft 400 kts 258°
2026-05-07 15:56 39.88950 -104.65328 34097 ft 400 kts 257°
2026-05-07 15:57 39.87615 -104.72363 34099 ft 400 kts 256°
2026-05-07 15:57 39.86242 -104.79390 34100 ft 400 kts 256°
2026-05-07 15:58 39.84929 -104.86190 34092 ft 401 kts 256°
2026-05-07 15:58 39.83583 -104.93189 33332 ft 401 kts 257°
2026-05-07 15:58 39.82907 -104.96700 33478 ft 401 kts 261°
2026-05-07 15:59 39.82229 -105.00224 33652 ft 401 kts 261°
2026-05-07 15:59 39.81555 -105.03723 33834 ft 401 kts 261°
2026-05-07 15:59 39.80875 -105.07232 34021 ft 400 kts 261°
2026-05-07 16:00 39.79584 -105.13892 34120 ft 400 kts 261°
2026-05-07 16:00 39.79239 -105.15668 34119 ft 400 kts 261°
2026-05-07 16:01 39.77872 -105.22690 34152 ft 402 kts 261°
2026-05-07 16:01 39.76494 -105.29713 34159 ft 400 kts 261°
2026-05-07 16:02 39.75125 -105.36638 34154 ft 393 kts 261°
2026-05-07 16:02 39.73772 -105.43513 34166 ft 392 kts 261°
2026-05-07 16:03 39.72421 -105.50378 34166 ft 392 kts 261°
2026-05-07 16:03 39.71064 -105.57237 34169 ft 392 kts 261°
2026-05-07 16:04 39.69690 -105.64099 34165 ft 392 kts 261°
2026-05-07 16:04 39.68310 -105.71028 34152 ft 403 kts 261°
2026-05-07 16:05 39.66891 -105.78133 34161 ft 408 kts 261°
2026-05-07 16:05 39.65454 -105.85267 34139 ft 409 kts 261°
2026-05-07 16:06 39.64009 -105.92404 34142 ft 409 kts 261°
2026-05-07 16:06 39.62560 -105.99551 34120 ft 409 kts 261°
2026-05-07 16:07 39.61107 -106.06703 34070 ft 410 kts 261°
2026-05-07 16:07 39.59899 -106.12648 34070 ft 410 kts 261°
2026-05-07 16:08 39.58439 -106.19806 34079 ft 411 kts 261°
2026-05-07 16:08 39.56968 -106.26977 34061 ft 412 kts 261°
2026-05-07 16:09 39.55485 -106.34149 34069 ft 412 kts 261°
2026-05-07 16:09 39.54002 -106.41322 34024 ft 413 kts 260°
2026-05-07 16:10 39.52512 -106.48514 34036 ft 413 kts 260°
2026-05-07 16:10 39.51020 -106.55712 34042 ft 414 kts 260°
2026-05-07 16:11 39.49522 -106.62906 34033 ft 414 kts 260°
2026-05-07 16:11 39.48013 -106.70114 34015 ft 415 kts 260°
2026-05-07 16:12 39.46497 -106.77327 34022 ft 415 kts 260°
2026-05-07 16:12 39.44972 -106.84544 34027 ft 416 kts 260°
2026-05-07 16:12 39.44208 -106.88153 34182 ft 416 kts 260°
2026-05-07 16:13 39.43423 -106.91711 34178 ft 417 kts 258°
2026-05-07 16:13 39.41666 -106.98861 34157 ft 418 kts 257°
2026-05-07 16:14 39.39820 -107.05996 34093 ft 418 kts 257°
2026-05-07 16:14 39.37995 -107.13145 34057 ft 419 kts 257°
2026-05-07 16:15 39.36195 -107.20323 34026 ft 420 kts 257°
2026-05-07 16:15 39.34387 -107.27520 34025 ft 421 kts 257°
2026-05-07 16:16 39.32578 -107.34671 34046 ft 421 kts 257°
2026-05-07 16:16 39.30754 -107.41863 34038 ft 421 kts 257°
2026-05-07 16:17 39.28923 -107.49060 34049 ft 422 kts 257°
2026-05-07 16:17 39.27080 -107.56269 34058 ft 423 kts 257°
2026-05-07 16:18 39.25231 -107.63482 34073 ft 423 kts 257°
2026-05-07 16:18 39.23379 -107.70685 34081 ft 423 kts 257°
2026-05-07 16:19 39.21519 -107.77903 34064 ft 424 kts 257°
2026-05-07 16:19 39.19660 -107.85131 34063 ft 425 kts 257°
2026-05-07 16:20 39.17881 -107.91989 34074 ft 426 kts 257°
2026-05-07 16:20 39.17831 -107.92181 34074 ft 425 kts 257°
2026-05-07 16:21 39.15948 -107.99407 34061 ft 426 kts 257°
2026-05-07 16:21 39.14063 -108.06647 34073 ft 426 kts 257°
2026-05-07 16:22 39.12164 -108.13912 34110 ft 426 kts 257°
2026-05-07 16:22 39.11387 -108.16883 34125 ft 426 kts 257°
2026-05-07 16:23 39.09497 -108.24115 34170 ft 426 kts 257°
2026-05-07 16:23 39.08074 -108.29511 34201 ft 427 kts 257°
2026-05-07 16:24 39.06163 -108.36745 34234 ft 427 kts 257°
2026-05-07 16:24 39.04264 -108.43931 34251 ft 427 kts 257°
2026-05-07 16:25 39.02349 -108.51156 34255 ft 427 kts 256°
2026-05-07 16:25 39.00418 -108.58385 34248 ft 427 kts 256°
2026-05-07 16:26 38.98491 -108.65623 34237 ft 427 kts 257°
2026-05-07 16:26 38.96561 -108.72846 34221 ft 428 kts 256°
2026-05-07 16:27 38.94619 -108.80075 34162 ft 428 kts 256°
2026-05-07 16:27 38.92673 -108.87305 34166 ft 428 kts 256°
2026-05-07 16:28 38.90727 -108.94528 34158 ft 429 kts 256°
2026-05-07 16:28 38.88765 -109.01755 34152 ft 429 kts 256°
2026-05-07 16:29 38.86798 -109.08996 34158 ft 430 kts 256°
2026-05-07 16:29 38.84826 -109.16255 34143 ft 431 kts 256°
2026-05-07 16:30 38.83339 -109.21714 34152 ft 432 kts 256°
2026-05-07 16:30 38.81354 -109.28980 34154 ft 432 kts 256°
2026-05-07 16:31 38.79359 -109.36254 34163 ft 432 kts 256°
2026-05-07 16:31 38.77357 -109.43523 34164 ft 432 kts 256°
2026-05-07 16:32 38.75354 -109.50798 34155 ft 433 kts 256°
2026-05-07 16:32 38.73337 -109.58083 34149 ft 434 kts 255°
2026-05-07 16:33 38.71314 -109.65367 34160 ft 434 kts 255°
2026-05-07 16:33 38.69286 -109.72656 34243 ft 435 kts 255°
2026-05-07 16:34 38.67270 -109.79901 34241 ft 435 kts 255°
2026-05-07 16:34 38.66255 -109.83548 34139 ft 435 kts 255°
2026-05-07 16:34 38.65227 -109.87241 34146 ft 435 kts 256°
2026-05-07 16:35 38.63184 -109.94526 34136 ft 435 kts 255°
2026-05-07 16:35 38.61128 -110.01816 34142 ft 436 kts 255°
2026-05-07 16:36 38.59069 -110.09100 34143 ft 436 kts 255°
2026-05-07 16:36 38.57018 -110.16347 34136 ft 436 kts 255°
2026-05-07 16:37 38.54955 -110.23629 34128 ft 436 kts 255°
2026-05-07 16:37 38.52879 -110.30923 34135 ft 437 kts 255°
2026-05-07 16:38 38.50799 -110.38220 34138 ft 437 kts 255°
2026-05-07 16:38 38.48713 -110.45513 34140 ft 437 kts 255°
2026-05-07 16:39 38.46625 -110.52811 34114 ft 438 kts 255°
2026-05-07 16:39 38.44526 -110.60113 34111 ft 439 kts 255°
2026-05-07 16:39 38.43468 -110.63770 34238 ft 439 kts 255°
2026-05-07 16:40 38.42397 -110.67423 34236 ft 441 kts 252°
2026-05-07 16:40 38.39166 -110.74157 34244 ft 451 kts 237°
2026-05-07 16:41 38.35326 -110.80480 34226 ft 451 kts 237°
2026-05-07 16:41 38.31496 -110.86810 34190 ft 451 kts 237°
2026-05-07 16:42 38.27664 -110.93151 34160 ft 452 kts 236°
2026-05-07 16:42 38.23834 -110.99462 34135 ft 453 kts 236°
2026-05-07 16:43 38.19967 -111.05810 34100 ft 453 kts 236°
2026-05-07 16:43 38.16100 -111.12149 34099 ft 453 kts 236°
2026-05-07 16:44 38.12235 -111.18476 34087 ft 454 kts 236°
2026-05-07 16:44 38.08367 -111.24811 34086 ft 454 kts 236°
2026-05-07 16:45 38.04487 -111.31144 34079 ft 454 kts 236°
2026-05-07 16:45 38.00592 -111.37471 34080 ft 454 kts 236°
2026-05-07 16:46 37.96703 -111.43783 34085 ft 454 kts 236°
2026-05-07 16:46 37.92818 -111.50101 34088 ft 455 kts 236°
2026-05-07 16:47 37.88935 -111.56389 34088 ft 455 kts 236°
2026-05-07 16:47 37.85049 -111.62656 34091 ft 455 kts 236°
2026-05-07 16:48 37.81135 -111.68957 34104 ft 456 kts 235°
2026-05-07 16:48 37.77213 -111.75266 34141 ft 456 kts 235°
2026-05-07 16:49 37.73295 -111.81557 34154 ft 456 kts 235°
2026-05-07 16:49 37.69372 -111.87847 34189 ft 456 kts 235°
2026-05-07 16:50 37.65445 -111.94134 34234 ft 456 kts 235°
2026-05-07 16:50 37.61510 -112.00420 34262 ft 456 kts 234°
2026-05-07 16:51 37.57563 -112.06700 34258 ft 457 kts 234°
2026-05-07 16:51 37.53625 -112.12987 34235 ft 456 kts 237°
2026-05-07 16:52 37.50720 -112.18505 34211 ft 455 kts 240°
2026-05-07 16:52 37.47265 -112.25193 34180 ft 455 kts 240°
2026-05-07 16:53 37.43799 -112.31862 34139 ft 455 kts 240°
2026-05-07 16:53 37.40329 -112.38525 34101 ft 455 kts 240°
2026-05-07 16:54 37.36865 -112.45187 34087 ft 455 kts 240°
2026-05-07 16:54 37.33415 -112.51812 34084 ft 456 kts 239°
2026-05-07 16:55 37.29936 -112.58479 34085 ft 456 kts 239°
2026-05-07 16:55 37.26446 -112.65149 34096 ft 457 kts 239°
2026-05-07 16:56 37.22954 -112.71807 34105 ft 456 kts 239°
2026-05-07 16:56 37.17706 -112.81771 34152 ft 456 kts 239°
2026-05-07 16:57 37.14223 -112.88364 34189 ft 457 kts 239°
2026-05-07 16:57 37.10713 -112.95011 34226 ft 457 kts 239°
2026-05-07 16:58 37.08962 -112.98322 34108 ft 454 kts 239°
2026-05-07 16:58 37.07228 -113.01593 33845 ft 446 kts 239°
2026-05-07 16:58 37.05525 -113.04804 33576 ft 440 kts 239°
2026-05-07 16:58 37.03842 -113.07981 33321 ft 436 kts 239°
2026-05-07 16:59 37.02171 -113.11130 33046 ft 433 kts 239°
2026-05-07 16:59 37.00521 -113.14239 32761 ft 430 kts 239°
2026-05-07 16:59 36.98862 -113.17361 32285 ft 428 kts 239°
2026-05-07 16:59 36.97211 -113.20463 31811 ft 426 kts 239°
2026-05-07 17:00 36.95571 -113.23537 31336 ft 424 kts 239°
2026-05-07 17:00 36.93941 -113.26599 30872 ft 422 kts 239°
2026-05-07 17:00 36.92315 -113.29648 30421 ft 421 kts 239°
2026-05-07 17:00 36.90692 -113.32686 29926 ft 419 kts 239°
2026-05-07 17:01 36.89077 -113.35704 29487 ft 416 kts 239°
2026-05-07 17:01 36.87477 -113.38686 29050 ft 412 kts 239°
2026-05-07 17:01 36.85887 -113.41648 28631 ft 409 kts 239°
2026-05-07 17:01 36.84305 -113.44595 28253 ft 406 kts 239°
2026-05-07 17:02 36.82735 -113.47517 27851 ft 403 kts 239°
2026-05-07 17:02 36.81190 -113.50394 27460 ft 400 kts 239°
2026-05-07 17:02 36.79633 -113.53294 27056 ft 398 kts 239°
2026-05-07 17:02 36.78099 -113.56154 26650 ft 396 kts 239°
2026-05-07 17:03 36.76571 -113.58997 26244 ft 393 kts 239°
2026-05-07 17:03 36.75053 -113.61823 25843 ft 391 kts 239°
2026-05-07 17:03 36.73543 -113.64633 25412 ft 389 kts 239°
2026-05-07 17:03 36.72040 -113.67428 24999 ft 388 kts 239°
2026-05-07 17:04 36.70540 -113.70216 24563 ft 387 kts 239°
2026-05-07 17:04 36.69041 -113.72999 24155 ft 386 kts 239°
2026-05-07 17:04 36.67541 -113.75777 23715 ft 386 kts 239°
2026-05-07 17:04 36.66050 -113.78539 23250 ft 384 kts 239°
2026-05-07 17:05 36.64565 -113.81290 22821 ft 381 kts 238°
2026-05-07 17:05 36.63092 -113.84019 22400 ft 378 kts 238°
2026-05-07 17:05 36.61626 -113.86728 21983 ft 375 kts 238°
2026-05-07 17:05 36.60171 -113.89410 21558 ft 373 kts 238°
2026-05-07 17:06 36.58720 -113.92071 21155 ft 371 kts 237°
2026-05-07 17:06 36.57233 -113.94643 20740 ft 369 kts 236°
2026-05-07 17:06 36.55680 -113.97178 20319 ft 367 kts 234°
2026-05-07 17:06 36.54104 -113.99676 19915 ft 366 kts 234°
2026-05-07 17:07 36.52528 -114.02150 19492 ft 364 kts 234°
2026-05-07 17:07 36.50963 -114.04616 19081 ft 363 kts 234°
2026-05-07 17:07 36.49424 -114.07060 18661 ft 362 kts 234°
2026-05-07 17:07 36.47878 -114.09526 18261 ft 361 kts 234°
2026-05-07 17:08 36.46345 -114.11987 17768 ft 360 kts 234°
2026-05-07 17:08 36.44823 -114.14439 17467 ft 354 kts 234°
2026-05-07 17:08 36.43340 -114.16828 17219 ft 343 kts 234°
2026-05-07 17:08 36.41893 -114.19158 16656 ft 339 kts 234°
2026-05-07 17:09 36.40453 -114.21472 16164 ft 339 kts 234°
2026-05-07 17:09 36.39010 -114.23783 15761 ft 339 kts 234°
2026-05-07 17:09 36.37549 -114.26095 15328 ft 341 kts 233°
2026-05-07 17:09 36.36101 -114.28365 15124 ft 334 kts 233°
2026-05-07 17:10 36.34669 -114.30599 14655 ft 329 kts 233°
2026-05-07 17:10 36.33251 -114.32812 14116 ft 327 kts 233°
2026-05-07 17:10 36.31835 -114.35031 13664 ft 330 kts 233°
2026-05-07 17:10 36.30437 -114.37219 13377 ft 316 kts 233°
2026-05-07 17:11 36.29082 -114.39338 12860 ft 312 kts 233°
2026-05-07 17:11 36.27728 -114.41451 12463 ft 315 kts 233°
2026-05-07 17:11 36.26379 -114.43555 12296 ft 308 kts 233°
2026-05-07 17:11 36.25056 -114.45618 12039 ft 304 kts 232°
2026-05-07 17:12 36.23744 -114.47644 11570 ft 300 kts 232°
2026-05-07 17:12 36.22434 -114.49650 11067 ft 297 kts 232°
2026-05-07 17:12 36.21138 -114.51628 10578 ft 294 kts 232°
2026-05-07 17:12 36.19848 -114.53606 10200 ft 296 kts 232°
2026-05-07 17:13 36.18558 -114.55586 9971 ft 291 kts 232°
2026-05-07 17:13 36.17318 -114.57481 9851 ft 275 kts 232°
2026-05-07 17:13 36.16138 -114.59278 9558 ft 265 kts 232°
2026-05-07 17:13 36.14986 -114.61035 9124 ft 261 kts 232°
2026-05-07 17:14 36.13846 -114.62776 8730 ft 259 kts 232°
2026-05-07 17:14 36.12708 -114.64517 8522 ft 261 kts 232°
2026-05-07 17:14 36.11578 -114.66242 8368 ft 255 kts 232°
2026-05-07 17:14 36.10511 -114.67869 8231 ft 248 kts 232°
2026-05-07 17:15 36.09408 -114.69551 7996 ft 246 kts 232°
2026-05-07 17:15 36.08335 -114.71204 7944 ft 247 kts 236°
2026-05-07 17:15 36.07557 -114.73086 7928 ft 247 kts 255°
2026-05-07 17:15 36.07316 -114.75157 7712 ft 243 kts 271°
2026-05-07 17:16 36.07323 -114.77242 7435 ft 242 kts 272°
2026-05-07 17:16 36.07332 -114.79326 7120 ft 243 kts 272°
2026-05-07 17:16 36.07338 -114.81316 6824 ft 239 kts 272°
2026-05-07 17:16 36.07342 -114.83345 6535 ft 233 kts 272°
2026-05-07 17:17 36.07345 -114.85236 6267 ft 224 kts 271°
2026-05-07 17:17 36.07348 -114.87116 5971 ft 217 kts 272°
2026-05-07 17:17 36.07352 -114.88972 5671 ft 214 kts 272°
2026-05-07 17:17 36.07354 -114.90782 5405 ft 209 kts 271°
2026-05-07 17:18 36.07356 -114.92530 5143 ft 203 kts 271°
2026-05-07 17:18 36.07358 -114.94225 4908 ft 202 kts 272°
2026-05-07 17:18 36.07360 -114.95942 4620 ft 196 kts 271°
2026-05-07 17:18 36.07362 -114.97597 4401 ft 188 kts 271°
2026-05-07 17:19 36.07363 -114.99193 4153 ft 179 kts 271°
2026-05-07 17:19 36.07363 -115.00648 3937 ft 164 kts 271°
2026-05-07 17:19 36.07365 -115.02031 3730 ft 159 kts 271°
2026-05-07 17:19 36.07365 -115.03382 3538 ft 157 kts 271°
2026-05-07 17:20 36.07366 -115.04728 3347 ft 156 kts 271°
2026-05-07 17:20 36.07366 -115.06068 3156 ft 155 kts 271°
2026-05-07 17:20 36.07366 -115.07400 2953 ft 155 kts 271°
2026-05-07 17:20 36.07366 -115.08732 2743 ft 155 kts 271°
2026-05-07 17:21 36.07389 -115.10058 2536 ft 154 kts 271°
2026-05-07 17:21 36.07365 -115.11374 2395 ft 153 kts 268°
2026-05-07 17:21 36.07372 -115.12681 2217 ft 154 kts 270°
2026-05-07 17:21 36.07367 -115.14000 2158 ft 152 kts 270°
2026-05-07 17:22 36.07368 -115.15159 2119 ft 114 kts 270°
2026-05-07 17:22 36.07360 -115.15662 2124 ft 24 kts 270°
2026-05-07 17:22 36.07361 -115.15873 2129 ft 12 kts 271°
2026-05-07 17:22 36.07362 -115.15988 2130 ft 16 kts 270°
2026-05-07 17:23 36.07383 -115.16107 2128 ft 16 kts 311°
2026-05-07 17:23 36.07463 -115.16128 2129 ft 11 kts